| time (UTC) | temp F | wind direction | speed knots | gust knots | rain 1hr in | rain 24hr in | rain mn in | humidity % | barometer mb |
| 20260906073059 | 60 | 0.0 | 0.0 | 0.00 | 0.00 | 0.00 | 78 | 1020.4 | |
| 20260906071600 | 60 | 0.0 | 0.0 | 0.00 | 0.00 | 0.00 | 80 | 1020.2 | |
| 20260906070058 | 60 | 0.0 | 0.0 | 0.00 | 0.00 | 0.00 | 81 | 1020.0 | |
| 20260906064554 | 59 | 0.0 | 0.0 | 0.00 | 0.00 | 0.00 | 81 | 1019.9 | |
| 20260906063104 | 59 | 0.0 | 0.0 | 0.00 | 0.00 | 0.00 | 81 | 1019.8 | |
| 20260906061609 | 59 | 0.0 | 0.0 | 0.00 | 0.00 | 0.00 | 82 | 1019.5 | |
| 20260906060107 | 58 | 0.0 | 0.0 | 0.00 | 0.00 | 0.00 | 83 | 1019.4 | |
| 20260906054606 | 58 | 0.0 | 0.0 | 0.00 | 0.00 | 0.00 | 82 | 1019.3 | |
| 20260906053102 | 58 | 0.0 | 0.0 | 0.00 | 0.00 | 0.00 | 83 | 1019.1 | |
| 20260906051604 | 58 | 0.0 | 0.0 | 0.00 | 0.00 | 0.00 | 83 | 1018.9 | |
| 20260906044602 | 58 | 0.0 | 0.0 | 0.00 | 0.00 | 0.00 | 83 | 1018.6 | |
| 20260906043102 | 58 | 0.0 | 0.0 | 0.00 | 0.00 | 0.00 | 83 | 1018.4 | |
| 20260906041557 | 58 | 0.0 | 0.0 | 0.00 | 0.00 | 0.00 | 83 | 1018.1 | |
| 20260906040058 | 58 | 0.0 | 0.0 | 0.00 | 0.00 | 0.00 | 82 | 1018.0 | |
| 20260906034600 | 58 | 0.0 | 0.0 | 0.00 | 0.00 | 0.00 | 83 | 1017.5 | |
| 20260906033101 | 58 | 0.0 | 0.0 | 0.00 | 0.00 | 0.00 | 83 | 1017.5 | |
| 20260906031607 | 58 | 0.0 | 0.0 | 0.00 | 0.00 | 0.00 | 83 | 1017.2 | |
| 20260906024558 | 58 | 0.0 | 0.0 | 0.00 | 0.00 | 0.00 | 82 | 1017.0 | |
| 20260906023102 | 58 | 0.0 | 0.0 | 0.00 | 0.00 | 0.00 | 82 | 1017.0 | |
| 20260906021607 | 58 | 0.0 | 0.0 | 0.00 | 0.00 | 0.00 | 82 | 1016.6 | |
| 20260906020108 | 58 | 0.0 | 0.0 | 0.00 | 0.00 | 0.00 | 82 | 1016.4 | |
| 20260906014602 | 58 | 0.0 | 0.0 | 0.00 | 0.00 | 0.00 | 82 | 1016.3 | |
| 20260906013100 | 58 | 0.0 | 0.0 | 0.00 | 0.00 | 0.00 | 82 | 1016.2 | |
| 20260906011558 | 58 | 0.0 | 0.0 | 0.00 | 0.00 | 0.00 | 82 | 1016.0 | |
| 20260906010104 | 58 | 0.0 | 0.0 | 0.00 | 0.00 | 0.00 | 82 | 1015.7 | |
| 20260906004556 | 59 | 0.0 | 0.0 | 0.00 | 0.00 | 0.00 | 81 | 1015.5 | |
| 20260906003108 | 59 | 0.0 | 0.0 | 0.00 | 0.00 | 0.00 | 81 | 1015.3 | |
| 20260906001605 | 59 | 0.0 | 0.0 | 0.00 | 0.00 | 0.00 | 81 | 1015.2 | |
| 20260905234558 | 59 | 0.0 | 0.0 | 0.00 | 0.00 | 0.00 | 80 | 1014.8 | |
| 20260905233105 | 59 | 0.0 | 0.0 | 0.00 | 0.00 | 0.00 | 80 | 1014.5 | |
| 20260905231602 | 59 | 0.0 | 0.0 | 0.00 | 0.00 | 0.00 | 80 | 1014.4 | |
| 20260905230100 | 59 | 0.0 | 0.0 | 0.00 | 0.00 | 0.00 | 80 | 1014.3 | |
| 20260905224609 | 59 | 0.0 | 0.0 | 0.00 | 0.00 | 0.00 | 79 | 1014.2 | |
| 20260905223055 | 59 | 0.0 | 0.0 | 0.00 | 0.00 | 0.00 | 79 | 1014.0 | |
| 20260905221605 | 59 | 0.0 | 0.0 | 0.00 | 0.00 | 0.00 | 79 | 1013.7 | |
| 20260905220108 | 59 | 0.0 | 0.0 | 0.00 | 0.00 | 0.00 | 80 | 1013.4 | |
| 20260905214555 | 59 | 0.0 | 0.0 | 0.00 | 0.00 | 0.00 | 80 | 1013.2 | |
| 20260905213102 | 59 | 0.0 | 0.0 | 0.00 | 0.00 | 0.00 | 79 | 1013.0 | |
| 20260905211629 | 59 | 0.0 | 0.0 | 0.00 | 0.00 | 0.00 | 79 | 1012.7 | |
| 20260905210124 | 59 | 0.0 | 0.0 | 0.00 | 0.00 | 0.00 | 79 | 1012.4 | |
| 20260905204608 | 59 | 0.0 | 0.0 | 0.00 | 0.00 | 0.00 | 80 | 1012.2 | |
| 20260905203118 | 59 | 0.0 | 0.0 | 0.00 | 0.00 | 0.00 | 79 | 1012.1 | |
| 20260905201601 | 59 | 0.0 | 0.0 | 0.00 | 0.00 | 0.00 | 78 | 1011.7 | |
| 20260905200107 | 59 | 0.0 | 0.0 | 0.00 | 0.00 | 0.00 | 78 | 1011.7 | |
| 20260905194603 | 59 | 0.0 | 0.0 | 0.00 | 0.00 | 0.00 | 76 | 1011.8 | |
| 20260905193057 | 59 | 0.0 | 0.0 | 0.00 | 0.00 | 0.00 | 76 | 1011.7 | |
| 20260905191558 | 59 | 0.0 | 0.0 | 0.00 | 0.00 | 0.00 | 76 | 1011.5 | |
| 20260905190105 | 58 | 0.0 | 0.0 | 0.00 | 0.00 | 0.00 | 79 | 1011.4 | |
| 20260905184606 | 58 | 0.0 | 0.0 | 0.00 | 0.03 | 0.00 | 79 | 1011.3 | |
| 20260905183100 | 59 | 0.0 | 0.0 | 0.00 | 0.03 | 0.00 | 79 | 1011.3 | |
| 20260905181610 | 59 | 0.0 | 0.0 | 0.00 | 0.03 | 0.00 | 78 | 1011.0 | |
| 20260905180109 | 60 | 0.0 | 0.0 | 0.00 | 0.03 | 0.00 | 75 | 1010.9 | |
| 20260905174559 | 60 | 0.0 | 0.0 | 0.00 | 0.16 | 0.00 | 74 | 1010.8 | |
| 20260905173103 | 61 | 0.0 | 0.0 | 0.00 | 0.16 | 0.00 | 73 | 1010.6 | |
| 20260905171557 | 61 | 0.0 | 0.0 | 0.00 | 0.16 | 0.00 | 72 | 1010.4 | |
| 20260905170107 | 62 | 0.0 | 0.0 | 0.00 | 0.16 | 0.00 | 72 | 1010.4 | |
| 20260905164559 | 62 | 0.0 | 0.0 | 0.00 | 0.16 | 0.00 | 72 | 1010.3 | |
| 20260905163108 | 62 | 0.0 | 0.0 | 0.00 | 0.16 | 0.00 | 72 | 1010.1 | |
| 20260905161602 | 63 | 0.0 | 0.0 | 0.00 | 0.16 | 0.00 | 71 | 1009.9 | |
| 20260905160135 | 63 | 0.0 | 0.0 | 0.00 | 0.16 | 0.00 | 69 | 1009.7 | |
| 20260905154605 | 64 | 0.0 | 0.0 | 0.00 | 0.16 | 0.00 | 68 | 1009.6 | |
| 20260905153103 | 65 | 0.0 | 0.0 | 0.00 | 0.16 | 0.00 | 69 | 1009.5 | |
| 20260905151609 | 65 | 0.0 | 0.0 | 0.00 | 0.16 | 0.00 | 68 | 1009.3 | |
| 20260905150100 | 64 | 0.0 | 0.0 | 0.00 | 0.16 | 0.00 | 69 | 1009.2 | |
| 20260905144602 | 65 | 0.0 | 0.0 | 0.00 | 0.17 | 0.00 | 67 | 1009.0 | |
| 20260905143059 | 66 | 0.0 | 0.0 | 0.00 | 0.17 | 0.00 | 68 | 1008.9 | |
| 20260905141556 | 65 | 0.0 | 0.0 | 0.00 | 0.17 | 0.00 | 68 | 1009.0 | |
| 20260905134604 | 65 | 0.0 | 0.0 | 0.00 | 0.25 | 0.00 | 68 | 1008.6 | |
| 20260905133058 | 65 | 0.0 | 0.0 | 0.00 | 0.25 | 0.00 | 68 | 1008.8 | |
| 20260905131600 | 66 | 0.0 | 0.0 | 0.00 | 0.25 | 0.00 | 66 | 1008.6 | |
| 20260905130057 | 65 | 0.0 | 0.0 | 0.00 | 0.25 | 0.00 | 68 | 1008.5 | |
| 20260905124558 | 65 | 0.0 | 0.0 | 0.00 | 0.30 | 0.00 | 67 | 1008.3 | |
| 20260905123058 | 65 | 0.0 | 0.0 | 0.00 | 0.30 | 0.00 | 67 | 1008.0 | |
| 20260905121605 | 65 | 0.0 | 0.0 | 0.00 | 0.30 | 0.00 | 64 | 1008.0 | |
| 20260905120114 | 66 | 0.0 | 0.0 | 0.00 | 0.30 | 0.00 | 65 | 1007.8 | |
| 20260905114600 | 66 | 0.0 | 0.0 | 0.00 | 0.40 | 0.00 | 66 | 1007.7 | |
| 20260905113100 | 65 | 0.0 | 0.0 | 0.00 | 0.40 | 0.00 | 69 | 1007.6 | |
| 20260905111613 | 66 | 0.0 | 0.0 | 0.00 | 0.40 | 0.00 | 68 | 1007.5 | |
| 20260905110106 | 65 | 0.0 | 0.0 | 0.00 | 0.40 | 0.00 | 67 | 1007.5 | |
| 20260905104603 | 66 | 0.0 | 0.0 | 0.00 | 0.43 | 0.00 | 67 | 1007.5 | |
| 20260905103058 | 65 | 0.0 | 0.0 | 0.00 | 0.43 | 0.00 | 69 | 1007.5 | |
| 20260905101600 | 65 | 0.0 | 0.0 | 0.00 | 0.43 | 0.00 | 69 | 1007.2 | |
| 20260905094558 | 64 | 0.0 | 0.0 | 0.00 | 0.44 | 0.00 | 73 | 1007.0 | |
| 20260905093059 | 64 | 0.0 | 0.0 | 0.00 | 0.44 | 0.00 | 74 | 1007.0 | |
| 20260905091623 | 63 | 0.0 | 0.0 | 0.00 | 0.44 | 0.00 | 76 | 1006.8 | |
| 20260905090119 | 63 | 0.0 | 0.0 | 0.00 | 0.44 | 0.00 | 75 | 1006.7 | |
| 20260905084610 | 63 | 0.0 | 0.0 | 0.00 | 0.48 | 0.00 | 75 | 1006.6 | |
| 20260905083100 | 63 | 0.0 | 0.0 | 0.00 | 0.48 | 0.00 | 77 | 1006.4 | |
| 20260905081601 | 63 | 0.0 | 0.0 | 0.00 | 0.48 | 0.00 | 78 | 1006.4 | |
| 20260905080101 | 63 | 0.0 | 0.0 | 0.00 | 0.48 | 0.00 | 80 | 1006.2 | |
| 20260905074603 | 62 | 0.0 | 0.0 | 0.00 | 0.48 | 0.00 | 83 | 1006.2 |